Погода в Могоче

Погода в Могоче : погода сейчас, прогноз погоды и архив. Всё, что Вы хотите узнать о погоде в Могоче!

Хотите узнать прогноз погоды в Могоче? Тогда Вам сюда: Погода в Могоче

Поиск расширенной информации на нашем сайте:

Другие новости

Новости СМИ2

Главная страница сайта

Новости сайта

03.07.2017

Напоминаем, что на нашем специализированном сайте Метеоцентр.Азия вы можете получить высокодетализированные автоматические прогнозы погоды по пунктам России, СНГ и мира в авиационном формате (включающие направление и скорость ветра, видимость, явления погоды, количество и форму облачности, нижнюю и верхнюю границу облачности).

Рекомендуем: предлагаются помещения продажа офиса в БЦ Eurasia Tower в деловом центре Москва Сити

Погода в Могоче - сегодня

Время (UTC), дата Ветер
(°,м/с) 
Видим.   Явления Облачность Т
(°С)
Тd
(°С)
f(%) Тe
(°С)
Pmin
(гПа)
dP
(гПа)
Po
(мм)
O2
(г/м3)
Тmin Tmax R s Состояние
почвы
03 17.02.18 270 (З) 20000 м    ясно 
-16.6 -26.7 41 -20  1024.7  -0.3  708  305           
06 17.02.18 280 (З) 20000 м    ясно 
-13.1 -24.5 38 -18  1022.8  -0.7  707  301           
09 17.02.18 290 (З) 20000 м    3/0 верхняя 
[Ci fib]
-13.6 -26.3 33 -16  1023.1  0.1  707  302           
15 17.02.18 090 (В) 20000 м    ясно 
-29.3 -33.7 66 -30  1030.1  0.6  708  322           
18 17.02.18 300 (СЗ) 20000 м    ясно 
-31.3 -35 70 -32  1030.7  0.1  708  324           
21 17.02.18 тихо ()   20000 м    ясно 
-33.6 -37.6 67 -34  1031.5  708  327           
00 18.02.18 тихо ()   20000 м    1/0 средняя 
[Ac lent]
-34.3 -38.4 66 -34  1032.7  0.8  709  329  -35.2      11  равномерный
сухой снег
100% 
03 18.02.18 тихо ()   20000 м    3/0 верхняя 
[Cs]
-21.9 -28.1 57 -22  1027.8  -0.4  709  312           
06 18.02.18 040 (СВ) 20000 м    10/4 1000 м верхняя 
[Cu med, cong|Cs]
-11.9 -23.7 37 -12  1022.7  -1.7  707  300           
09 18.02.18 270 (З) 20000 м    8/1 1000 м верхняя 
[Cu med, cong|Ci fib]
-13.9 -26.3 34 -16  1022.5  -0.7  707  302           
15 18.02.18 260 (З) 20000 м    6/0 верхняя 
[Ci fib]
-23.8 -29.8 58 -30  1026.5  0.1  707  314           
18 18.02.18 280 (З) 20000 м    3/0 верхняя 
[Ci fib]
-29 -33.5 65 -33  1028.3  707  321           
21 18.02.18 тихо ()   20000 м    4/0 верхняя 
[Ci fib]
-34.5 -38.6 66 -35  1030.9  0.3  707  328           
00 19.02.18 тихо ()   20000 м    ясно 
-35.1 -39.3 65 -35  1032  708  329  -35.6      11  равномерный
сухой снег
100% 
03 19.02.18 тихо ()   20000 м    1/0 верхняя 
[Ci fib]
-19.6 -26.6 54 -20  1025.9  -0.5  708  309           
06 19.02.18 290 (З) 20000 м    5/3 1000 м верхняя 
[Cu hum|Cs]
-13.9 -28.1 29 -16  1022.5  -1.3  707  302           
09 19.02.18 300 (СЗ) 20000 м    4/3 1000 м верхняя 
[Cu med, cong|Cs]
-14.1 -29 27 -16  1022.7  0.1  707  302           
15 19.02.18 270 (З) 20000 м    3/0 верхняя 
[Cs]
-29.6 -34.2 64 -30  1028.3  0.1  707  321           
18 19.02.18 тихо ()   20000 м    3/0 верхняя 
[Cs]
-32.6 -36.6 68 -33  1029.1  -0.3  707  325           
21 19.02.18 тихо ()   20000 м    1/0 верхняя 
[Cs]
-34.6 -38.7 66 -35  1029.5  -0.3  707  328           
00 20.02.18 тихо ()   20000 м    6/0 верхняя 
[Cs]
-34.5 -38.7 65 -35  1029.8  0.2  707  328  -36.1      10  равномерный
сухой снег
100% 
03 20.02.18 тихо ()   20000 м    3/0 верхняя 
[Cs]
-22.8 -29.7 53 -23  1025  -0.5  706  312           
06 20.02.18 250 (З) 20000 м    3/0 верхняя 
[Cs]
-13 -26.4 32 -16  1019.4  -2.1  705  300           
09 20.02.18 260 (З) 20000 м    9/0 верхняя 
[Cs]
-15.1 -27.3 34 -17  1019.9  -0.2  705  302           
15 20.02.18 250 (З) 20000 м    4/0 верхняя 
[Cs]
-24.6 -30.3 59 -28  1021.2  -1.3  703  313           
Время (UTC), дата Ветер
(°,м/с) 
Видим.   Явления Облачность Т
(°С)
Тd
(°С)
f(%) Тe
(°С)
Pmin
(гПа)
dP
(гПа)
Po
(мм)
O2
(г/м3)
Тmin Tmax R s Состояние
почвы

Для получения пояснительной информации подведите курсор к названию столбца.

ПОГОДА в Могоче - архив

Всё, что Вы хотите узнать о погоде в Могоче - удобно и подробно!

Выберите нужную дату (начиная с 1 января 2015* года) и нажмите кнопку "Найти".
Будут отображены архивные сводки погоды по пункту Могоча, начиная с указанной даты.


Отображать данные в формате CSV (для использования в таблицах Excel)


Внимание! Наш архив погоды предназначен исключительно для личного некоммерческого использования в познавательных целях. Если Вам необходимы официальные справки о состоянии погоды (для производственных, юридических, коммерческих и т.п. целей), обращайтесь в органы Росгидромета.

*Примечание: данная дата относится к архиву по метеостанциям СССР (Россия, СНГ, Балтия).
Архив по метеостанциям Зарубежной Европы и Азии (кроме Китая) хранится 10 дней, по другим регионам земного шара (Китай, Африка, Америка, Австралия, Океания) - 1 день.

Могоча - район местоположения метеостанции


Название, широта, долгота, высота метеостанции:
Могоча 53.8°ш. 119.7°д. 625 м над ур. моря [Российская Федерация]

Дополнительная информация

В oтличие oт бoльшинства пoгoдных сайтoв мы публикуем пoдрoбную метеoинфoрмацию в детальнoм прoфессиoнальнoм фoрмате.

Характеристики температуры и влажнoсти вoздуха измеряются на высoте 2 м в тени вдали oт зданий и деревьев.
Скoрoсть ветра измеряется на высoте 10 м (на урoвне рoста челoвека скoрoсть ветра ниже в 1.5-2 раза). Если метеoстанция нахoдится в гoрoде или в лесу, тo скoрoсть ветра занижена на 2-4 м/с пo сравнению с oткрытым местoм. Скoрoсть ветра над акватoриями крупных рек и oзёр, а также на вершинах хoлмoв на 2-5 м/с выше, чем в oбычных услoвиях.
Атмoсфернoе давление в разных тoчках местнoсти мoжет значительнo oтличаться oт давления на метеoстанции, в зависимoсти oт услoвий рельефа (при пoдъёме на 10 м давление пoнижается примернo на 1 мм рт.ст.).